User: anonymous   Login
Location: Unspecified
(0.0000°N, 0.0000°E)
Time: 08:56:50
(UTC+00:00)
Language:

FORTE - Orbit

View from above orbital plane
View from above orbital plane
View from above satellite
View from above satellite

Ground track
Ground track

The orbit data is extracted from the following two-line orbital elements,

1 24920U 97047A   20220.10642066 -.00000003  00000-0  22541-4 0  9997
2 24920  69.9541 160.0838 0025011 307.4460  52.4386 14.26382731193651
Epoch (UTC): 07 August 2020 02:33:14
Eccentricity: 0.0025011
inclination: 69.9541°
perigee height: 786 km
apogee height: 822 km
right ascension of ascending node: 160.0838°
argument of perigee: 307.4460°
revolutions per day: 14.26382731
mean anomaly at epoch: 52.4386°
orbit number at epoch: 19365

The dashed part of the orbit path shows where the satellite is in the earth's shadow,  

DLR